Welcome to the New NWS' Forecast!
Most changes are behind the scenes, but click here for differences you might notice.

Regional Weather Roundup (RWR)

Issued by Gray - Portland, ME (GYX)

                            
000
ASUS41 KGYX 160305
RWRGYX
WEATHER ROUNDUP FOR MAINE AND NEW HAMPSHIRE
NATIONAL WEATHER SERVICE GRAY ME
1000 PM EST THU NOV 15 2018

MEZ002-005-006-010-012-015-018-020-021-024-026-027-029-160400-
MAINE
  
CITY           SKY/WX    TMP DP  RH WIND       PRES   REMARKS
PORTLAND       CLOUDY    30  16  56 N3        30.34F                  
SANFORD        CLOUDY    28  18  66 NE7       30.31F                  
BAR HARBOR     FAIR      25  14  63 N3        30.40F                  
WISCASSET      FAIR      27  13  55 CALM      30.38F                  
ROCKLAND       FAIR      30  17  58 NE5       30.37F                  
FRYEBURG       FAIR      23  14  68 CALM      30.32F                  
LEWISTONAUBURN FAIR      26  10  50 E5        30.34F                  
AUGUSTA        FAIR      25   9  50 NE3       30.36F                  
WATERVILLE     FAIR      24  11  57 MISG      30.33F                  
BANGOR         CLOUDY    26  11  52 E3        30.39F                  
GREENVILLE       N/A     17   8  67 SE6       30.26F                  
MILLINOCKET    FAIR      17  13  84 CALM      30.38F                  
HOULTON        FAIR      13  12  96 CALM      30.37F                  
PRESQUE ISLE   FAIR       9   7  92 CALM      30.37F                  
FRENCHVILLE    FAIR      18   5  57 S3        30.30F                  
CARIBOU        FAIR      13   6  74 CALM      30.35F                  
$$

NHZ002-005-008-009-011-012-014-160400-
NEW HAMPSHIRE
  
CITY           SKY/WX    TMP DP  RH WIND       PRES   REMARKS
PORTSMOUTH     LGT SNOW  28  25  89 N6        30.29F VSB 5/8          
ROCHESTER      LGT SNOW  27  18  69 NE5       30.29F                  
NASHUA         SNOW      25  23  92 N5        30.28F VSB 1/2          
MANCHESTER     SNOW      26  24  92 NE6       30.27F VSB 1/2          
CONCORD        LGT SNOW  24  19  81 CALM      30.30F                  
LACONIA        CLOUDY    27  12  53 NE10      30.29F WCI  17          
PLYMOUTH       CLOUDY    26  17  68 CALM      30.29F                  
BERLIN         FAIR      20  14  77 N3        30.25F                  
WHITEFIELD     FAIR      20  15  81 CALM      30.23F                  
JAFFREY        SNOW      22  21  96 VRB5      30.22F VSB 1/2          
KEENE          LGT SNOW  24  21  88 NE5       30.24F FOG              
LEBANON        LGT SNOW  25  15  66 SW3       30.26F                  
MT WASHINGTON  CLOUDY    14 -18  22 S28         N/A  WCI  -6          
$$

VTZ005-007-008-160400-
VERMONT
  
CITY           SKY/WX    TMP DP  RH WIND       PRES   REMARKS
ST JOHNSBURY     N/A     19  14  81 MISG      30.25F                  
MONTPELIER     CLOUDY    19  16  88 CALM      30.25F                  
BURLINGTON     CLOUDY    27  12  53 SE5       30.20F                  
$$

MAZ007-012-024-CTZ003-RIZ002-NYZ038-NYZ072-160400-
SOUTHERN NEW ENGLAND AND NY
  
CITY           SKY/WX    TMP DP  RH WIND       PRES   REMARKS
BOSTON         LGT SNOW  35  32  88 E16       30.26F VSB 1            
WORCESTER      SNOW      23  22  96 NE7       30.17F VSB 1/2          
NANTUCKET      RAIN      36  32  85 E17G32    30.21F FOG              
PROVIDENCE     SNOW      32  31  96 NE10      30.21F VSB 1/2          
HARTFORD       HVY SNOW  26  25  96 N12       30.18F VSB 1/4 WCI  16  
ALBANY         LGT SNOW  25  21  85 N5        30.15F VSB 1            
NEW YORK CITY  LGT RAIN  38  37  97 E25       29.97F FOG              
$$

ANZ081-ANZ082-ANZ150-NHZ014-MEZ023>029-160400-
COASTAL MARINE OBSERVATIONS
  
STATION/POSITION TIME  TEMP    WIND        PRES    WAVE
                       AIR SEA DIR/SP/G            HT/PER
                 (UTC) (F)     (DEG/KT/KT) (MB)    (FT/S)
MOUNT DESERT ROC 0300   34      80/  9/ 11 1028.8F
MATINICUS ROCK   0200   33      90/  7/  8 1028.8F
ISLE OF SHOALS   0200   35      90/ 15/ 18 1026.8F
CASHES LEDGE BUO 0250   37 49              1027.5F   2/ 8
$$

.............KEY..............
   WCI - WIND CHILL
   TC  - TEMPERATURE IN CELSIUS
   VSB - VISIBILITY IN MILES
   HX  - HEAT INDEX
   FAIR- INDICATES FEW OR NO CLOUDS BELOW 12,000 FT, WITH NO 
         SIGNIFICANT WEATHER AND/OR OBSTRUCTIONS TO VISIBILITY.